This is the latest recevied weather packets stored in our database for station/object KA3BQE-13. If no packets are shown the sender has not sent any weather packets the latest 10 day(s).
| Time | Temp. | Humidity | Pressure | Rain* | Wind** | Luminosity | Snow |
|---|---|---|---|---|---|---|---|
| 1777303161 | 13.89° C | 98% | 1008.4 hPa | 1.78 mm | - | 14 W/m² | - |
| 1777302860 | 13.89° C | 97% | 1008.2 hPa | 1.78 mm | - | 15 W/m² | - |
| 1777302556 | 13.89° C | 97% | 1008.3 hPa | 2.29 mm | - | 13 W/m² | - |
| 1777302254 | 13.89° C | 97% | 1009.1 hPa | 2.29 mm | - | 12 W/m² | - |
| 1777301951 | 13.89° C | 97% | 1009.3 hPa | 3.05 mm | - | 11 W/m² | - |
| 1777301649 | 13.89° C | 96% | 1009.9 hPa | 2.29 mm | - | 12 W/m² | - |
| 1777301346 | 13.89° C | 96% | 1010.5 hPa | 3.56 mm | - | 10 W/m² | - |
| 1777301042 | 13.89° C | 95% | 1010.3 hPa | 5.33 mm | - | 9 W/m² | - |
| 1777300740 | 13.89° C | 94% | 1010.2 hPa | 5.33 mm | - | 9 W/m² | - |
| 1777300437 | 14.44° C | 93% | 1011.1 hPa | 4.32 mm | - | 9 W/m² | - |
| 1777300135 | 14.44° C | 93% | 1011.4 hPa | 4.32 mm | - | 8 W/m² | - |
| 1777299831 | 14.44° C | 92% | 1011.7 hPa | 3.56 mm | - | 7 W/m² | - |
| 1777299529 | 14.44° C | 91% | 1011.6 hPa | 2.29 mm | - | 8 W/m² | - |
| 1777299226 | 15° C | 90% | 1011.6 hPa | 1.78 mm | - | 9 W/m² | - |
| 1777298923 | 15° C | 89% | 1010.1 hPa | 1.78 mm | - | 11 W/m² | - |
| 1777298621 | 15° C | 87% | 1009.5 hPa | 1.27 mm | - | 10 W/m² | - |
| 1777298317 | 15° C | 86% | 1010 hPa | 0 mm | - | 10 W/m² | - |
| 1777298013 | 15.56° C | 85% | 1010.8 hPa | 0 mm | - | 11 W/m² | - |
| 1777297708 | 15.56° C | 84% | 1010.8 hPa | 0 mm | - | 12 W/m² | - |
| 1777297407 | 15.56° C | 84% | 1010.7 hPa | 0 mm | - | 12 W/m² | - |
| 1777297103 | 15.56° C | 84% | 1010.6 hPa | 0 mm | - | 14 W/m² | - |
| 1777296800 | 15.56° C | 83% | 1010.2 hPa | 0 mm | - | 14 W/m² | - |
| 1777296496 | 15.56° C | 82% | 1010.4 hPa | 0 mm | - | 17 W/m² | - |
| 1777296191 | 15.56° C | 81% | 1010.4 hPa | 0 mm | - | 20 W/m² | - |
| 1777295888 | 15.56° C | 81% | 1010.4 hPa | 0 mm | - | 21 W/m² | - |
* Rain latest hour (hover to see other rain measurements)
** Current wind speed in m/s (hover to see current wind gust speed)